Location: Dehesa de la Cepeda
(40.6574°N, 4.3013°W)
Time: 10:34:11
(UTC+00:00)

Transit 2A Rocket - Pass Details

Date: 08 August 2021
Orbit: 586 x 917 km, 66.7° (Epoch: 24 September)

Event Time Altitude Azimuth Distance (km) Brightness Sun altitude
Rises 19:13:32 0° 345° (NNW) 3,262 8.8 1.1°
Reaches altitude 10° 19:17:58 10° 19° (NNE) 2,421 7.6 0.3°
Maximum altitude 19:19:40 11° 37° (NE) 2,361 7.4 0.0°
Drops below altitude 10° 19:21:23 10° 55° (NE) 2,480 7.3 -0.3°
Sets 19:26:05 0° 88° (E) 3,483 7.8 -1.2°
